Regional Weather Roundup
Issued by NWS

Home | Current Version | Previous Version | Text Only | Print | Product List | Glossary On
Versions: 1 2 3 4 5 6 7 8 9 10 11 12 13 14 15 16 17 18 19 20 21 22 23 24 25 26 27 28 29 30 31 32 33 34 35 36 37 38 39 40 41 42 43 44 45 46 47 48 49 50
000
ASUS43 KTOP 281308
RWRKS

WEATHER ROUNDUP FOR KANSAS
NATIONAL WEATHER SERVICE GOODLAND KS
700 AM CST SAT FEB 28 2015

NOTE:  "FAIR" INDICATES FEW OR NO CLOUDS BELOW 12,000 FEET WITH NO
SIGNIFICANT WEATHER AND/OR OBSTRUCTIONS TO VISIBILITY.

KSZ001>006-013>018-027>032-041>047-281400-
NORTHWEST KANSAS

CITY           SKY/WX    TMP DP  RH WIND       PRES   REMARKS
GOODLAND       CLOUDY     9   6  88 SE10      30.09S WCI  -5
HAYS           MOCLDY    14   3  62 S10       30.31R WCI   1
HILL CITY      LGT SNOW  13   9  84 SE7       30.28R VSB 1
RUSSELL        LGT SNOW  15  12  88 S10       30.32S FOG     WCI   2
$$

KSZ061>065-074>080-084>089-281400-
SOUTHWEST KANSAS

CITY           SKY/WX    TMP DP  RH WIND       PRES   REMARKS
DODGE CITY     CLOUDY    11   6  81 SE10      30.25S WCI  -3
ELKHART          N/A     13   5  70 S17         N/A  WCI  -4
GARDEN CITY    CLOUDY    10   7  87 SE14      30.19R WCI  -6
GREAT BEND     CLOUDY    14   7  73 S12       30.34S WCI   0
LIBERAL        CLOUDY    14   9  79 SE10      30.20R WCI   1
PRATT          LGT SNOW  14  10  85 SE9       30.35R
$$

KSZ066>073-081>083-090>101-281400-
SOUTHEAST KANSAS

CITY           SKY/WX    TMP DP  RH WIND       PRES   REMARKS
CHANUTE        CLOUDY    20  14  77 SE8       30.46F
COFFEYVILLE    LGT SNOW  20  15  81 E8        30.47F
HUTCHINSON     LGT SNOW  16  11  80 SE9       30.40R
MEDICINE LODGE   N/A     14  12  92 SE6       30.37S
NEWTON         CLOUDY    16   9  73 SE7       30.41S
PARSONS        LGT SNOW  21  15  78 VRB3      30.47F
WICHITA INTL   LGT SNOW  17  13  84 SE7       30.42R VSB 1
WICHITA JABRA  LGT SNOW  16  13  88 SE7       30.42R FOG
WICHITA MCCONL LGT SNOW  16  13  87 SE3       30.41R FOG
WINFIELD       LGT SNOW  17  15  92 SE6       30.44R FOG
$$

KSZ007>012-019>026-033>040-048>060-102>105-281400-
NORTHEAST KANSAS

CITY           SKY/WX    TMP DP  RH WIND       PRES   REMARKS
CONCORDIA      CLOUDY    13  10  88 SE10      30.39F WCI   0
EMPORIA        FLURRIES  17   9  70 SE8       30.44S
LAWRENCE       CLOUDY    16   8  71 E7        30.50F
MANHATTAN      CLOUDY    16  12  84 E3        30.46S
MARYSVILLE     CLOUDY    12   7  79 SE5       30.45S
OLATHE IND     CLOUDY    17   9  70 E7        30.49F
OLATHE EXE     CLOUDY    17   8  67 E6        30.48F
SALINA         LGT SNOW  17  12  80 SE9       30.42S
TOPEKA BILLARD CLOUDY    16   8  71 E5        30.49F
TOPEKA FORBES  CLOUDY    18   9  68 E7        30.46F
$$


USA.gov is the U.S. government's official web portal to all federal, state and local government web resources and services.